Regional Weather Roundup
Issued by NWS

Home | Current Version | Previous Version | Graphics & Text | Print | Product List | Glossary On
Versions: 1 2 3 4 5 6 7 8 9 10 11 12 13 14 15 16 17 18 19 20 21 22 23 24 25 26 27 28 29 30 31 32 33 34 35 36 37 38 39 40 41 42 43 44 45 46 47 48 49 50
735
ASUS44 KLIX 201801
RWRLA
LOUISIANA WEATHER ROUNDUP
NATIONAL WEATHER SERVICE NEW ORLEANS LA
100 PM CDT SUN APR 20 2014

NOTE: "FAIR" INDICATES FEW OR NO CLOUDS BELOW 12,000 FEET WITH NO
      SIGNIFICANT WEATHER AND/OR OBSTRUCTIONS TO VISIBILITY.
      SKY/WX - SKY CONDITION AND SIGNIFICANT WEATHER.
      TMP - AIR TEMPERATURE.    DP   - DEWPOINT TEMPERATURE.
      RH  - RELATIVE HUMIDITY.  PRES - PRESSURE.
      HX  - HEAT INDEX.         WCI  - WIND CHILL INDEX.

*  THESE STATIONS ARE NOT NWS OR FAA STATIONS AND ARE NOT UNDER
   NWS QUALITY CONTROL.

LAZ040-048-061>063-065-066-069-201900-
SOUTHEAST LOUISIANA

CITY           SKY/WX    TMP DP  RH WIND       PRES   REMARKS
N.O. AUDUBON   NOT AVBL
N.O. INTL ARPT MOSUNNY   78  58  49 NE8       30.17F
6HR MIN TEMP:  63; 6HR MAX TEMP:  79;

N.O. LAKEFRONT SUNNY     73  60  63 N6        30.18F
6HR MIN TEMP:  64; 6HR MAX TEMP:  73;

N.O. DOWNTOWN* FAIR      77  54  44 CALM      30.18F
6HR MIN TEMP:  64; 6HR MAX TEMP:  79;

SLIDELL        SUNNY     80  51  36 NE8       30.15F
6HR MIN TEMP:  51; 6HR MAX TEMP:  80;

BATON ROUGE    SUNNY     81  48  31 CALM      30.16F
6HR MIN TEMP:  54; 6HR MAX TEMP:  82;

BOOTHVILLE     SUNNY     70  60  70 NE7       30.19F
6HR MIN TEMP:  61; 6HR MAX TEMP:  70;

BELLE CHASSE   MOSUNNY   77  58  51 VRB5      30.16F
BOGALUSA*        N/A     80  48  31 E8        30.18F
6HR MIN TEMP:  51; 6HR MAX TEMP:  80;

GALLIANO*      NOT AVBL
NEW ROADS*     NOT AVBL
GONZALES*      FAIR      80  53  39 CALM      30.16F
6HR MIN TEMP:  54; 6HR MAX TEMP:  80;

HAMMOND*       NOT AVBL
HOUMA*         NOT AVBL
PORT FOURCHON* CLEAR     72  61  68 E10       30.19F

$$

LAZ041-044-053-054-201900-
SOUTHWEST LOUISIANA

CITY           SKY/WX    TMP DP  RH WIND       PRES   REMARKS
LAKE CHARLES   SUNNY     79  54  41 E3        30.17F
6HR MIN TEMP:  55; 6HR MAX TEMP:  80;

LAFAYETTE      SUNNY     79  55  43 CALM      30.17F
6HR MIN TEMP:  55; 6HR MAX TEMP:  79;

PATTERSON      SUNNY     81  54  39 SE8       30.20F
6HR MIN TEMP:  55; 6HR MAX TEMP:  81;

SALT POINT       N/A     76  63  64 CALM      30.16F
6HR MIN TEMP:  63; 6HR MAX TEMP:  80;

NEW IBERIA     SUNNY     81  55  40 N5        30.17F
6HR MIN TEMP:  57; 6HR MAX TEMP:  82;

CHENAULT AIRPK NOT AVBL

$$

LAZ027-028-201900-
CENTRAL LOUISIANA

CITY           SKY/WX    TMP DP  RH WIND       PRES   REMARKS
FORT POLK      PTSUNNY   79  53  40 VRB5      30.16F
6HR MIN TEMP:  54; 6HR MAX TEMP:  79;

ALEXANDRIA INT SUNNY     79  54  41 E6        30.15F
6HR MIN TEMP:  53; 6HR MAX TEMP:  80;

ALEXANDRIA     SUNNY     82  51  34 SW5       30.17F
6HR MIN TEMP:  51; 6HR MAX TEMP:  82;


$$

LAZ001-002-201900-
NORTHWEST LOUISIANA

CITY           SKY/WX    TMP DP  RH WIND       PRES   REMARKS
SHREVEPORT     MOSUNNY   77  55  46 S5        30.14F
6HR MIN TEMP:  55; 6HR MAX TEMP:  81;

BARKSDALE AFB  NOT AVBL
DTN SHREVEPORT SUNNY     77  56  48 E8        30.15F
6HR MIN TEMP:  54; 6HR MAX TEMP:  78;


$$

LAZ014-016-201900-
NORTHEAST LOUISIANA

CITY           SKY/WX    TMP DP  RH WIND       PRES   REMARKS
MONROE         MOSUNNY   79  50  36 E6        30.17F
6HR MIN TEMP:  52; 6HR MAX TEMP:  81;

TALLULAH       SUNNY     79  52  38 NE6       30.17F
6HR MIN TEMP:  56; 6HR MAX TEMP:  79;


$$




USA.gov is the U.S. government's official web portal to all federal, state and local government web resources and services.